Sitka, AK

3:58 AM AKDT on June 23, 2017 (GMT -0800)
Sitka Rocky Gutierrez

Weather History for PASI - November, 2011

Change the Weather History Date:

Wednesday, November 30, 2011

  Actual Average Record
Temperature  
Mean Temperature 40 °F -  
Max Temperature 46 °F 40 °F 52 °F (1959)
Min Temperature 35 °F 32 °F 15 °F (1970)
Degree Days  
Heating Degree Days 24    
Moisture  
Dew Point 36 °F    
Average Humidity 82    
Maximum Humidity 100    
Minimum Humidity 58    
Precipitation  
Precipitation 0.85 in - - ()
Sea Level Pressure  
Sea Level Pressure 30.37 in    
Wind  
Wind Speed 12 mph (SE)    
Max Wind Speed 33 mph    
Max Gust Speed 48 mph    
Visibility 8 miles    
Events Rain    
Averages and records for this station are not official NWS values.
T = Trace of Precipitation, MM = Missing Value Source: NWS Daily Summary

Daily Weather History Graph

Daily Weather History Graph

Search for Another Location

Airport or City:

Trip Planner

Search our weather history database for the weather conditions in past years. The results will help you decide how hot, cold, wet, or windy it might be!

Date:

Astronomy

Nov. 30, 2011 Rise Set
Actual Time 8:13 AM AKST 3:26 PM AKST
Civil Twilight 7:25 AM AKST 4:13 PM AKST
Nautical Twilight 6:36 AM AKST 5:03 PM AKST
Astronomical Twilight 5:50 AM AKST 5:49 PM AKST
Moon 11:54 AM AKST (11/30) 10:17 PM AKST (11/30)
Length of Visible Light 8h 48m
Length of Day
7h 13m
Waxing Crescent, 35% of the Moon is Illuminated
Nov 30
Waxing Crescent
Dec 2
First Quarter
Dec 10
Full
Dec 17
Last Quarter
Dec 24
New

Hourly Weather History & Observations

Time (AKST) Temp. Windchill Dew Point Humidity Pressure Visibility Wind Dir Wind Speed Gust Speed Precip Events Conditions
12:53 AM 36.0 °F 30.3 °F 35.1 °F 97% 30.49 in 10.0 mi East 6.9 mph - 0.01 in Rain Light Rain
1:32 AM 35.6 °F 29.9 °F 35.6 °F 100% 30.50 in 10.0 mi ESE 6.9 mph - 0.00 in   Mostly Cloudy
1:53 AM 36.0 °F 30.3 °F 36.0 °F 100% 30.50 in 10.0 mi East 6.9 mph - 0.00 in   Mostly Cloudy
2:51 AM 37.4 °F 32.1 °F 35.6 °F 93% 30.52 in 10.0 mi ESE 6.9 mph - N/A   Overcast
2:53 AM 37.4 °F 31.4 °F 35.6 °F 93% 30.52 in 10.0 mi ESE 8.1 mph - N/A   Overcast
3:00 AM 35.6 °F 29.2 °F 35.6 °F 100% 30.52 in 10.0 mi East 8.1 mph - N/A   Overcast
3:38 AM 37.4 °F 34.9 °F 35.6 °F 93% 30.53 in 10.0 mi East 3.5 mph - N/A   Overcast
3:53 AM 37.0 °F 32.4 °F 35.1 °F 93% 30.53 in 10.0 mi East 5.8 mph - N/A   Overcast
4:10 AM 37.4 °F 32.1 °F 35.6 °F 93% 30.53 in 10.0 mi East 6.9 mph - N/A   Overcast
4:53 AM 37.0 °F 34.5 °F 36.0 °F 96% 30.53 in 10.0 mi East 3.5 mph - N/A   Mostly Cloudy
5:53 AM 37.9 °F 32.7 °F 35.1 °F 89% 30.52 in 10.0 mi SSE 6.9 mph - N/A   Overcast
6:53 AM 39.9 °F 33.4 °F 34.0 °F 79% 30.53 in 7.0 mi SE 10.4 mph - N/A   Mostly Cloudy
7:07 AM 39.2 °F 32.0 °F 35.6 °F 87% 30.51 in 7.0 mi ESE 11.5 mph - N/A   Mostly Cloudy
7:14 AM 39.2 °F 32.0 °F 33.8 °F 81% 30.52 in 7.0 mi SE 11.5 mph - N/A   Mostly Cloudy
7:53 AM 41.0 °F 33.5 °F 33.1 °F 73% 30.51 in 10.0 mi ESE 13.8 mph - N/A   Mostly Cloudy
8:53 AM 41.0 °F 33.9 °F 33.1 °F 73% 30.48 in 10.0 mi ESE 12.7 mph - N/A   Mostly Cloudy
9:53 AM 41.0 °F 34.7 °F 33.1 °F 73% 30.51 in 10.0 mi SE 10.4 mph - N/A   Overcast
10:53 AM 41.0 °F 34.3 °F 32.0 °F 70% 30.49 in 10.0 mi ESE 11.5 mph - 0.00 in   Mostly Cloudy
11:53 AM 43.0 °F 36.4 °F 28.9 °F 58% 30.48 in 10.0 mi SE 12.7 mph - N/A   Overcast
12:21 PM 42.8 °F 35.1 °F 30.2 °F 61% 30.45 in 6.0 mi SE 16.1 mph 32.2 mph 0.01 in Rain Light Rain
12:39 PM 42.8 °F 33.5 °F 33.8 °F 70% 30.43 in 9.0 mi ESE 23.0 mph 36.8 mph 0.02 in Rain Light Rain
12:53 PM 42.1 °F 33.3 °F 33.1 °F 70% 30.45 in 10.0 mi ESE 19.6 mph 24.2 mph 0.02 in   Overcast
1:53 PM 42.1 °F 33.3 °F 33.1 °F 70% 30.39 in 10.0 mi ESE 19.6 mph 26.5 mph N/A   Overcast
2:53 PM 44.1 °F 35.9 °F 33.1 °F 65% 30.35 in 10.0 mi ESE 19.6 mph 27.6 mph 0.00 in   Overcast
3:53 PM 46.0 °F 37.6 °F 34.0 °F 63% 30.32 in 10.0 mi SE 24.2 mph 38.0 mph N/A   Overcast
4:53 PM 46.0 °F 38.5 °F 35.1 °F 66% 30.30 in 10.0 mi SSE 19.6 mph 39.1 mph N/A   Overcast
5:53 PM 46.9 °F - 36.0 °F 66% 30.28 in 10.0 mi SSE 21.9 mph 28.8 mph N/A   Overcast
6:53 PM 45.0 °F 36.9 °F 37.9 °F 76% 30.23 in 6.0 mi SE 20.7 mph 29.9 mph 0.01 in Rain Light Rain
7:33 PM 42.8 °F 34.5 °F 37.4 °F 81% 30.21 in 5.0 mi ESE 18.4 mph 27.6 mph 0.05 in Rain Rain
7:53 PM 42.8 °F 34.3 °F 37.4 °F 81% 30.20 in 5.0 mi SE 19.6 mph 25.3 mph N/A Rain Rain
8:31 PM 42.8 °F 34.8 °F 37.4 °F 81% 30.16 in 6.0 mi ESE 17.3 mph 27.6 mph 0.08 in Rain Rain
8:43 PM 42.8 °F 34.8 °F 37.4 °F 81% 30.15 in 4.0 mi SE 17.3 mph 26.5 mph 0.11 in Rain Rain
8:53 PM 42.1 °F 34.5 °F 37.9 °F 85% 30.14 in 5.0 mi ESE 15.0 mph 24.2 mph 0.13 in Rain Rain
9:53 PM 43.0 °F 35.1 °F 39.0 °F 86% 30.10 in 4.0 mi SSE 17.3 mph 24.2 mph 0.15 in Rain Rain
10:53 PM 45.0 °F 35.2 °F 42.1 °F 90% 30.05 in 2.0 mi South 29.9 mph 46.0 mph 0.20 in Rain Light Rain
11:07 PM 44.6 °F 34.9 °F 42.8 °F 93% 30.05 in 1.8 mi South 28.8 mph 44.9 mph 0.08 in Rain Heavy Rain
11:19 PM 44.6 °F 34.9 °F 42.8 °F 93% 30.05 in 2.0 mi SSE 28.8 mph 38.0 mph 0.15 in Rain Heavy Rain
11:53 PM 46.0 °F 36.2 °F 44.1 °F 93% 30.02 in 3.0 mi South 33.4 mph 48.3 mph 0.33 in Rain Heavy Rain